Location: Newark
(11.2914°S, 14.4718°E)
Time: 03:04:39
(UTC+00:00)

Vanguard 2 - Pass Details

Date: 21 September 2019
Orbit: 554 x 2937 km, 32.9° (Epoch: 16 October)

Event Time Altitude Azimuth Distance (km) Brightness Sun altitude
Rises 20:40:48 0° 237° (WSW) 5,840 12.5 -55.0°
Reaches altitude 10° 20:44:13 10° 237° (WSW) 5,074 12.0 -55.8°
Enters shadow 20:54:21 52° 237° (WSW) 3,263 10.5 -58.1°
